[[{"header":{"parameterUnit":"m.s-1","parameterCategory":1,"la1":30.2991,"la2":30.254,"lo1":-89.0895,"lo2":-89.0444,"dy":0.0017,"dx":0.0017,"nx":28,"ny":28,"refTime":"2023-04-26T21:00:00:Z","depth":0,"parameterNumber":2,"parameterNumberName":"U-component_of_WINDS"},"data":[0,0,0,0,0,0,0,0,0,0,0,0,0,0,0,0,0,0,0,0,0,0,0,0,0,0,0,0,0,0,0,0,0,0,0,0,0,0,0,0,0,0,0,0,0,0,0,0,0,0,0,0,0,0,0,0,0,0,-5.3603,-5.3603,0,-5.3596,-5.3596,-5.3596,-5.3425,-5.3421,-5.3417,-5.3412,-5.3406,-5.341,-5.3414,0,0,0,0,0,0,0,0,0,0,0,0,0,-5.347,-5.3473,-5.3603,-5.3603,-5.3603,-5.3596,-5.3596,-5.3596,-5.3426,-5.3421,-5.3415,-5.341,-5.3405,-5.3409,-5.3414,0,0,0,0,0,0,0,0,0,0,0,0,0,-5.3502,-5.3474,-5.3603,-5.3517,-5.351,-5.3596,-5.3596,-5.3596,-5.3427,-5.3421,-5.3414,-5.3408,-5.3403,-5.3409,-5.3415,-5.3583,0,0,-5.3433,-5.3435,0,0,0,0,0,0,0,0,-5.35,-5.3507,-5.353,-5.3523,-5.3515,-5.3505,-5.3546,-5.3591,-5.3429,-5.3459,-5.3412,-5.3405,-5.3444,-5.3446,-5.3459,-5.3582,-5.3582,-5.3433,-5.3437,-5.3439,-5.3441,0,0,0,0,0,0,0,-5.3498,-5.3506,-5.36,-5.3531,-5.3521,-5.3479,-5.3477,-5.3554,-5.3488,-5.3455,-5.3443,-5.3445,-5.3439,-5.3454,-5.3458,-5.3582,-5.3433,-5.3438,-5.3442,-5.3444,-5.3842,-5.3849,0,0,0,0,0,0,-5.3508,-5.3505,-5.36,-5.36,-5.3491,-5.3487,-5.3484,-5.3515,-5.3487,-5.3477,-5.345,-5.3437,-5.3447,-5.3451,-5.3457,-5.3652,-5.3439,-5.3445,-5.3448,-5.3835,-5.3843,-5.3851,0,0,0,0,0,0,-5.3505,-5.3518,-5.36,-5.3549,-5.3557,-5.3496,-5.3532,-5.3518,-5.3533,-5.3483,-5.347,-5.3478,-5.3442,-5.3449,-5.3552,-5.3649,-5.3447,-5.3453,-5.3827,-5.3838,-5.3847,-5.4043,0,0,0,0,0,0,-5.3502,-5.3518,-5.3581,-5.3552,-5.356,-5.3697,-5.3538,-5.3523,-5.3544,-5.3526,-5.3506,-5.3496,-5.3438,-5.3545,-5.3558,-5.3654,-5.3457,-5.3818,-5.3831,-5.3844,-5.4028,-5.4059,-5.4086,0,0,0,0,0,-5.3498,-5.3637,-5.3585,-5.3598,-5.3638,-5.3703,-5.3707,-5.3637,-5.3552,-5.3615,-5.3583,-5.3497,-5.3637,-5.3557,-5.3571,-5.3669,-5.3811,-5.3828,-5.3843,-5.4015,-5.4053,-5.4085,0,0,0,0,0,0,-5.3679,-5.3631,-5.3574,-5.3707,-5.371,-5.3674,-5.3751,-5.368,-5.3707,-5.3689,-5.3601,-5.3598,-5.3716,-5.3702,-5.3614,-5.383,-5.3709,-5.3728,-5.3835,-5.3871,-5.3899,-5.39,-5.3462,0,0,0,0,0,-5.3734,-5.3791,-5.3746,-5.3868,-5.3873,-5.3812,-5.3838,-5.3783,-5.3783,-5.3784,-5.3759,-5.3762,-5.3806,-5.3838,-5.3876,-5.4025,-5.4018,-5.41,-5.4129,-5.4153,-5.4171,-5.4249,-5.4285,-5.3903,-5.3903,-5.3903,0,0,-5.3849,-5.383,-5.3871,-5.3904,-5.39,-5.3961,-5.3814,-5.3885,-5.3929,-5.3794,-5.389,-5.3873,-5.3871,-5.3998,-5.4053,-5.3991,-5.4275,-5.4173,-5.4193,-5.4197,-5.4269,-5.4305,-5.4338,-5.3914,-5.3912,-5.391,0,0,-5.409,-5.4081,-5.4182,-5.4181,-5.4177,-5.4135,-5.416,-5.4135,-5.4118,-5.4213,-5.4113,-5.4164,-5.4243,-5.4245,-5.4257,-5.4499,-5.4421,-5.4514,-5.4666,-5.4743,-5.4774,-5.48,-5.4886,-5.4919,-5.4532,-5.4532,-5.4533,0,-5.4233,-5.4321,-5.4243,-5.432,-5.4337,-5.4218,-5.4319,-5.4322,-5.4331,-5.4346,-5.4276,-5.4372,-5.4362,-5.4488,-5.4548,-5.4561,-5.4586,-5.4516,-5.4775,-5.4801,-5.4824,-5.4906,-5.4939,-5.4544,-5.4542,-5.4541,-5.454,0,-5.4498,-5.456,-5.4642,-5.4653,-5.4679,-5.4769,-5.4704,-5.474,-5.4684,-5.465,-5.4749,-5.4733,-5.4766,-5.4792,-5.4737,-5.4911,-5.4872,-5.4791,-5.4667,-5.4873,-5.4949,-5.4979,-5.456,-5.4556,-5.4553,-5.455,0,0,-5.4852,-5.4819,-5.4851,-5.4855,-5.4841,-5.4888,-5.4972,-5.5003,-5.5036,-5.5047,-5.5115,-5.5184,-5.5108,-5.5122,-5.5066,-5.5134,-5.5328,-5.5043,-5.5042,-5.5097,-5.5518,-5.5581,-5.5618,-5.5275,-5.5281,-5.5286,-5.5519,0,-5.5085,-5.5226,-5.5158,-5.5307,-5.5364,-5.5251,-5.5324,-5.5324,-5.5295,-5.5339,-5.5306,-5.5357,-5.5253,-5.526,-5.5322,-5.5291,-5.5411,-5.5273,-5.5338,-5.5342,-5.5343,-5.5657,-5.5723,-5.5944,-5.5548,-5.5553,-5.5556,0,-5.5375,-5.5398,-5.5553,-5.5529,-5.555,-5.5617,-5.5641,-5.5684,-5.5682,-5.5656,-5.5672,-5.56,-5.5681,-5.5558,-5.5668,-5.5576,-5.5598,-5.5587,-5.5594,-5.5598,-5.5462,-5.567,-5.6012,-5.6046,-5.5602,-5.5598,-5.5595,0,-5.5619,-5.5688,-5.5789,-5.5796,-5.5771,-5.5821,-5.5812,-5.5803,-5.5827,-5.5848,-5.5863,-5.5893,-5.591,-5.5936,-5.5875,-5.5791,-5.5993,-5.5865,-5.5974,-5.5976,-5.6022,-5.602,-5.6374,-5.6037,-5.6037,-5.6036,-5.6035,0,-5.5886,-5.5985,-5.5898,-5.5961,-5.6069,-5.599,-5.6099,-5.6078,-5.6072,-5.6129,-5.6033,-5.6088,-5.6004,-5.6052,-5.6005,-5.6103,-5.6111,-5.6093,-5.6079,-5.6102,-5.6104,-5.6115,-5.6099,-5.6045,-5.6043,-5.6041,-5.6039,0,-5.6176,-5.6122,-5.6225,-5.6193,-5.6187,-5.6269,-5.6241,-5.6298,-5.6262,-5.6335,-5.6348,-5.6292,-5.6343,-5.6284,-5.633,-5.6298,-5.6432,-5.6396,-5.6433,-5.6423,-5.6535,-5.6526,-5.6909,-5.6955,-5.6589,-5.6593,-5.6596,0,-5.6351,-5.6424,-5.64,-5.6431,-5.6429,-5.6481,-5.6504,-5.6429,-5.6458,-5.6461,-5.6518,-5.656,-5.659,-5.6676,-5.664,-5.6675,-5.6639,-5.6771,-5.6643,-5.6664,-5.6641,-5.6638,-5.6645,-5.6797,-5.6801,-5.6805,-5.6808,0,-5.6666,-5.6635,-5.6673,-5.6702,-5.6733,-5.6752,-5.6764,-5.6795,-5.6717,-5.6754,-5.6805,-5.6828,-5.6875,-5.6919,-5.6943,-5.6934,-5.6859,-5.6848,-5.6875,-5.6899,-5.6918,-5.6909,-5.6504,-5.684,-5.6836,-5.6834,-5.6832,-5.6831,-5.6903,-5.6964,-5.6956,-5.7002,-5.7003,-5.7016,-5.7068,-5.7039,-5.7079,-5.7112,-5.7065,-5.7128,-5.7124,-5.7149,-5.715,-5.7198,-5.7142,-5.7181,-5.7191,-5.7202,-5.7219,-5.691,-5.7202,-5.7201,-5.72,-5.7199,-5.7199,0,-5.7214,-5.7203,-5.7246,-5.7265,-5.7302,-5.7227,-5.7236,-5.7271,-5.7328,-5.733,-5.7362,-5.742,-5.7462,-5.743,-5.7464,-5.751,-5.7476,-5.7522,-5.7518,-5.7517,-5.7267,-5.724,-5.7548,-5.7548,-5.7548,-5.7548,-5.7548,-5.7548,-5.7379,-5.7478,-5.7447,-5.7545,-5.7533,-5.7594,-5.7606,-5.7618,-5.7619,-5.7689,-5.7723,-5.7702,-5.769,-5.7723,-5.7759,-5.7748,-5.7766,-5.7824,-5.7801,-5.7569,-5.7534,-5.7502,-5.7476,-5.7828,-5.7829,-5.8046,-5.8048,-5.805]},{"header":{"parameterUnit":"m.s-1","parameterCategory":1,"la1":30.2991,"la2":30.254,"lo1":-89.0895,"lo2":-89.0444,"dy":0.0017,"dx":0.0017,"nx":28,"ny":28,"refTime":"2023-04-26T21:00:00:Z","depth":0,"parameterNumber":3,"parameterNumberName":"V-component_of_WINDS"},"data":[0,0,0,0,0,0,0,0,0,0,0,0,0,0,0,0,0,0,0,0,0,0,0,0,0,0,0,0,0,0,0,0,0,0,0,0,0,0,0,0,0,0,0,0,0,0,0,0,0,0,0,0,0,0,0,0,0,0,-1.0294,-1.0293,0,-1.0196,-1.0195,-1.0194,-1.013,-1.0129,-1.0129,-1.0129,-1.0028,-1.0026,-1.0023,0,0,0,0,0,0,0,0,0,0,0,0,0,-1.0423,-1.0421,-1.0294,-1.0293,-1.0291,-1.0196,-1.0195,-1.0193,-1.013,-1.0129,-1.0129,-1.0129,-1.0029,-1.0026,-1.0023,0,0,0,0,0,0,0,0,0,0,0,0,0,-1.035,-1.042,-1.0294,-1.0248,-1.0243,-1.0196,-1.0195,-1.0193,-1.013,-1.0129,-1.0129,-1.0128,-1.003,-1.0026,-1.0023,-1.0013,0,0,-1.0012,-1.0011,0,0,0,0,0,0,0,0,-1.0354,-1.0345,-1.0256,-1.0251,-1.0246,-1.0174,-1.0203,-1.0133,-1.013,-1.0173,-1.0129,-1.0128,-1.0077,-1.007,-1.0053,-1.0009,-1.0004,-1.0012,-1.001,-1.0008,-1.0007,0,0,0,0,0,0,0,-1.0359,-1.0349,-1.0255,-1.0255,-1.0248,-1.0231,-1.022,-1.0189,-1.013,-1.0169,-1.0164,-1.0154,-1.0074,-1.0056,-1.005,-1.0003,-1.0012,-1.0009,-1.0007,-1.0005,-0.9942,-0.9942,0,0,0,0,0,0,-1.0372,-1.0354,-1.0258,-1.0252,-1.0299,-1.023,-1.0217,-1.0198,-1.013,-1.0119,-1.0154,-1.0151,-1.0062,-1.0054,-1.0046,-1.0028,-1.0008,-1.0005,-1.0003,-0.9941,-0.9942,-0.9942,0,0,0,0,0,0,-1.0375,-1.0364,-1.0262,-1.0301,-1.0287,-1.0228,-1.0207,-1.0196,-1.0178,-1.0118,-1.0107,-1.0147,-1.0061,-1.0051,-1.0021,-1.0023,-1.0003,-1.0,-0.9941,-0.9941,-0.9942,-0.9993,0,0,0,0,0,0,-1.0379,-1.0365,-1.0362,-1.0302,-1.0285,-1.024,-1.0207,-1.0195,-1.0173,-1.0167,-1.0109,-1.0099,-1.006,-1.0026,-1.0018,-1.0018,-0.9998,-0.994,-0.9941,-0.9942,-0.9991,-0.9996,-0.9999,0,0,0,0,0,-1.0384,-1.0381,-1.0363,-1.0351,-1.028,-1.024,-1.0231,-1.0187,-1.0173,-1.0168,-1.0129,-1.01,-1.0025,-1.0024,-1.0013,-1.0013,-0.994,-0.9941,-0.9942,-0.9989,-0.9995,-0.9999,0,0,0,0,0,0,-1.0445,-1.0373,-1.0351,-1.033,-1.0291,-1.023,-1.0223,-1.0195,-1.016,-1.0156,-1.0103,-1.009,-1.0065,-1.0036,-1.0037,-0.9998,-0.9979,-0.9977,-1.0018,-1.0023,-1.0027,-1.0034,-0.9995,0,0,0,0,0,-1.0455,-1.043,-1.0368,-1.0355,-1.0337,-1.0283,-1.0264,-1.0233,-1.0192,-1.0175,-1.0134,-1.0094,-1.0061,-1.004,-1.0007,-0.9986,-0.9971,-0.9981,-0.9985,-0.9988,-0.9988,-0.9971,-0.9974,-0.9945,-0.9945,-0.9945,0,0,-1.0478,-1.0435,-1.0423,-1.0366,-1.0333,-1.0306,-1.027,-1.0244,-1.0223,-1.0171,-1.014,-1.0108,-1.006,-1.0034,-1.002,-1.0009,-0.9992,-0.999,-0.9993,-0.999,-0.9972,-0.9975,-0.9978,-0.9946,-0.9946,-0.9945,0,0,-1.0504,-1.0471,-1.0454,-1.0421,-1.0371,-1.0335,-1.0331,-1.0272,-1.0249,-1.0216,-1.0176,-1.0149,-1.0095,-1.0061,-1.0036,-1.0046,-1.0017,-1.0036,-1.0058,-1.0042,-1.0044,-1.0046,-1.0047,-1.0049,-1.0036,-1.0036,-1.0036,0,-1.0538,-1.0497,-1.045,-1.0424,-1.0399,-1.035,-1.0332,-1.0302,-1.0244,-1.0227,-1.0215,-1.0142,-1.0106,-1.007,-1.0072,-1.0054,-1.0046,-1.0043,-1.0048,-1.0049,-1.005,-1.005,-1.0051,-1.0039,-1.0038,-1.0038,-1.0038,0,-1.054,-1.0511,-1.0504,-1.0447,-1.0421,-1.04,-1.0348,-1.0327,-1.0298,-1.0262,-1.0228,-1.0183,-1.0137,-1.0126,-1.0098,-1.0085,-1.0079,-1.0058,-1.0037,-1.0056,-1.0056,-1.0056,-1.0042,-1.0041,-1.0041,-1.004,0,0,-1.0604,-1.0519,-1.0517,-1.0489,-1.0428,-1.0405,-1.038,-1.0335,-1.0317,-1.0277,-1.0254,-1.0206,-1.0185,-1.0158,-1.0124,-1.0111,-1.0118,-1.0091,-1.0089,-1.0096,-1.0097,-1.0113,-1.0114,-1.0098,-1.0098,-1.0098,-1.0101,0,-1.062,-1.0573,-1.0528,-1.0497,-1.0468,-1.0419,-1.0397,-1.0356,-1.0322,-1.0291,-1.0252,-1.0219,-1.0195,-1.0177,-1.0162,-1.0121,-1.0117,-1.012,-1.0074,-1.0073,-1.0087,-1.0114,-1.0131,-1.0136,-1.01,-1.01,-1.01,0,-1.0633,-1.0594,-1.056,-1.0499,-1.0485,-1.0466,-1.0419,-1.0391,-1.0343,-1.0318,-1.0286,-1.025,-1.0219,-1.0201,-1.0156,-1.0159,-1.0137,-1.0113,-1.0112,-1.0106,-1.0088,-1.0107,-1.0136,-1.0137,-1.01,-1.01,-1.01,0,-1.0681,-1.062,-1.059,-1.0568,-1.0497,-1.0484,-1.0453,-1.0405,-1.0379,-1.0338,-1.0321,-1.0277,-1.0253,-1.0219,-1.0171,-1.0163,-1.013,-1.0109,-1.0107,-1.0108,-1.0103,-1.0103,-1.0128,-1.0091,-1.0091,-1.0091,-1.0091,0,-1.0703,-1.0683,-1.061,-1.0592,-1.0568,-1.0515,-1.0492,-1.0457,-1.0413,-1.0386,-1.0341,-1.0316,-1.0255,-1.0223,-1.0185,-1.0152,-1.0142,-1.012,-1.011,-1.0123,-1.0126,-1.0108,-1.0106,-1.0091,-1.0091,-1.0091,-1.0091,0,-1.0752,-1.0703,-1.0667,-1.0601,-1.0584,-1.0569,-1.0511,-1.0491,-1.0453,-1.0419,-1.0407,-1.0347,-1.0306,-1.0255,-1.0198,-1.0172,-1.0142,-1.0128,-1.0159,-1.0153,-1.0153,-1.0153,-1.0166,-1.0164,-1.013,-1.0131,-1.0131,0,-1.0769,-1.0752,-1.0684,-1.0662,-1.0633,-1.0599,-1.0572,-1.0519,-1.0493,-1.0434,-1.042,-1.0375,-1.0337,-1.0273,-1.0223,-1.0178,-1.0162,-1.0169,-1.0155,-1.0168,-1.0159,-1.0161,-1.0158,-1.0173,-1.0174,-1.0174,-1.0175,0,-1.0803,-1.0779,-1.0743,-1.0697,-1.0666,-1.0627,-1.0587,-1.0571,-1.0509,-1.0481,-1.0438,-1.0408,-1.0348,-1.0304,-1.0252,-1.0219,-1.0185,-1.0179,-1.0176,-1.0189,-1.0207,-1.0195,-1.0168,-1.0179,-1.0179,-1.0179,-1.0178,-1.0178,-1.0835,-1.0817,-1.0765,-1.0725,-1.0689,-1.0651,-1.0627,-1.0585,-1.0549,-1.0496,-1.0466,-1.0423,-1.0371,-1.0298,-1.0266,-1.023,-1.0219,-1.0215,-1.0214,-1.0213,-1.0216,-1.0213,-1.0221,-1.0221,-1.0221,-1.022,-1.022,0,-1.0866,-1.0829,-1.0793,-1.0737,-1.0704,-1.0676,-1.0628,-1.0603,-1.0566,-1.0521,-1.0483,-1.0432,-1.0387,-1.0333,-1.0284,-1.0266,-1.0249,-1.0255,-1.0255,-1.0248,-1.0231,-1.0237,-1.0269,-1.0269,-1.0269,-1.0269,-1.0269,-1.0269,-1.0878,-1.0844,-1.0813,-1.076,-1.0723,-1.0681,-1.0656,-1.062,-1.0583,-1.0528,-1.0491,-1.0456,-1.0406,-1.0353,-1.031,-1.0295,-1.0278,-1.0288,-1.0268,-1.0253,-1.0249,-1.0245,-1.0251,-1.0285,-1.0285,-1.0288,-1.0288,-1.0288]}]]